TimeEDT,TemperatureF,Dew PointF,Humidity,Sea Level PressureIn,VisibilityMPH,Wind Direction,Wind SpeedMPH,Gust SpeedMPH,PrecipitationIn,Events,Conditions,WindDirDegrees,DateUTC
12:54 AM,62.1,57.9,86,30.00,10.0,SSE,4.6,-,0.01,,Mostly Cloudy,150,2013-10-04 04:54:00
1:54 AM,63.0,60.1,90,30.00,6.0,SSE,5.8,-,0.00,Rain,Heavy Rain,150,2013-10-04 05:54:00
2:32 AM,62.6,60.8,94,30.01,2.0,NNW,5.8,-,0.17,Rain,Heavy Rain,340,2013-10-04 06:32:00
2:36 AM,62.6,62.6,100,30.01,1.5,WNW,3.5,-,0.24,Rain,Heavy Rain,300,2013-10-04 06:36:00
2:42 AM,64.4,62.6,94,30.00,0.5,Calm,Calm,-,0.38,Rain,Heavy Rain,0,2013-10-04 06:42:00
2:54 AM,64.0,63.0,96,30.00,2.0,WNW,3.5,-,0.68,Rain,Heavy Rain,290,2013-10-04 06:54:00
3:04 AM,64.4,64.4,100,30.00,4.0,Calm,Calm,-,0.06,Rain,Rain,0,2013-10-04 07:04:00
3:08 AM,64.4,64.4,100,30.00,2.0,Calm,Calm,-,0.08,Rain,Heavy Rain,0,2013-10-04 07:08:00
3:20 AM,64.4,62.6,94,30.00,7.0,Calm,Calm,-,0.12,Rain,Light Rain,0,2013-10-04 07:20:00
3:54 AM,64.9,64.0,97,30.00,6.0,Calm,Calm,-,0.14,Rain,Light Rain,0,2013-10-04 07:54:00
4:54 AM,64.9,64.0,97,29.99,6.0,SSE,3.5,-,0.00,,Overcast,150,2013-10-04 08:54:00
5:54 AM,64.9,64.0,97,30.00,6.0,South,3.5,-,N/A,,Overcast,180,2013-10-04 09:54:00
6:54 AM,66.0,64.0,93,30.00,6.0,SSW,5.8,-,N/A,,Overcast,210,2013-10-04 10:54:00
7:10 AM,66.2,64.4,94,30.01,6.0,SW,5.8,-,N/A,,Overcast,220,2013-10-04 11:10:00
7:54 AM,66.9,64.9,93,30.02,6.0,SW,6.9,-,N/A,,Overcast,220,2013-10-04 11:54:00
8:54 AM,68.0,64.9,90,30.03,7.0,SW,8.1,-,N/A,,Overcast,230,2013-10-04 12:54:00
9:34 AM,69.8,66.2,88,30.03,9.0,SSW,10.4,-,N/A,,Mostly Cloudy,210,2013-10-04 13:34:00
9:54 AM,70.0,66.0,87,30.02,10.0,SW,11.5,-,N/A,,Mostly Cloudy,230,2013-10-04 13:54:00
10:13 AM,69.8,66.2,88,30.02,10.0,WSW,12.7,-,N/A,,Mostly Cloudy,250,2013-10-04 14:13:00
10:54 AM,71.1,66.9,87,30.02,9.0,WSW,11.5,-,N/A,,Mostly Cloudy,240,2013-10-04 14:54:00
11:51 AM,69.8,66.2,88,30.02,8.0,SW,10.4,-,0.00,Rain,Light Rain,230,2013-10-04 15:51:00
11:54 AM,70.0,66.9,90,30.02,8.0,WSW,9.2,-,0.00,Rain,Light Rain,240,2013-10-04 15:54:00
12:34 PM,69.8,66.2,88,30.03,1.2,West,9.2,-,0.00,Rain,Rain,260,2013-10-04 16:34:00
12:50 PM,68.0,66.2,94,30.03,3.0,West,4.6,-,0.13,Rain,Light Rain,270,2013-10-04 16:50:00
12:54 PM,68.0,66.9,96,30.02,3.0,WSW,4.6,-,0.13,Rain,Light Rain,250,2013-10-04 16:54:00
1:11 PM,69.8,66.2,88,30.02,4.0,West,5.8,-,0.02,Rain,Light Rain,260,2013-10-04 17:11:00
1:26 PM,69.8,68.0,94,30.02,3.0,WSW,5.8,-,0.02,Rain,Light Rain,250,2013-10-04 17:26:00
1:54 PM,70.0,66.9,90,30.00,5.0,SW,5.8,-,0.03,Rain,Light Rain,220,2013-10-04 17:54:00
2:10 PM,69.8,66.2,88,30.01,6.0,SW,8.1,-,0.00,,Overcast,220,2013-10-04 18:10:00
2:36 PM,69.8,66.2,88,30.01,6.0,SW,9.2,-,0.00,,Overcast,230,2013-10-04 18:36:00
2:54 PM,70.0,66.0,87,30.00,6.0,WSW,9.2,-,0.00,,Overcast,240,2013-10-04 18:54:00
3:07 PM,69.8,66.2,88,30.00,6.0,SW,9.2,-,N/A,,Overcast,230,2013-10-04 19:07:00
3:48 PM,69.8,66.2,88,30.01,5.0,West,9.2,-,N/A,,Overcast,260,2013-10-04 19:48:00
3:54 PM,70.0,66.0,87,30.00,5.0,West,8.1,-,N/A,,Overcast,260,2013-10-04 19:54:00
4:44 PM,69.8,66.2,88,30.01,4.0,WSW,10.4,-,N/A,,Overcast,240,2013-10-04 20:44:00
4:54 PM,69.1,66.0,90,30.01,4.0,SW,6.9,-,N/A,,Overcast,230,2013-10-04 20:54:00
5:23 PM,69.8,66.2,88,30.01,4.0,SW,9.2,-,N/A,,Mostly Cloudy,220,2013-10-04 21:23:00
5:36 PM,69.8,66.2,88,30.01,4.0,SW,8.1,-,N/A,,Overcast,220,2013-10-04 21:36:00
5:54 PM,68.0,66.0,93,30.02,3.0,SW,10.4,-,N/A,,Overcast,230,2013-10-04 21:54:00
6:54 PM,68.0,66.0,93,30.02,3.0,WSW,8.1,-,N/A,,Overcast,240,2013-10-04 22:54:00
7:54 PM,68.0,66.0,93,30.03,3.0,West,4.6,-,N/A,,Overcast,260,2013-10-04 23:54:00
8:54 PM,66.0,64.0,93,30.05,3.0,NNE,5.8,-,N/A,,Overcast,20,2013-10-05 00:54:00
9:03 PM,64.4,62.6,94,30.05,2.5,NE,5.8,-,N/A,,Overcast,40,2013-10-05 01:03:00
9:26 PM,64.4,62.6,94,30.06,1.5,NNE,5.8,-,N/A,,Overcast,20,2013-10-05 01:26:00
9:45 PM,62.6,62.6,100,30.06,0.8,NE,3.5,-,N/A,,Overcast,40,2013-10-05 01:45:00
9:54 PM,63.0,62.1,97,30.06,0.8,NE,4.6,-,N/A,,Overcast,50,2013-10-05 01:54:00
10:29 PM,62.6,62.6,100,30.06,1.0,NNE,3.5,-,N/A,,Overcast,30,2013-10-05 02:29:00
10:54 PM,63.0,62.1,97,30.05,1.0,Calm,Calm,-,N/A,,Overcast,0,2013-10-05 02:54:00
11:51 PM,62.6,60.8,94,30.06,2.5,NNE,4.6,-,0.01,,Overcast,20,2013-10-05 03:51:00
11:54 PM,62.1,61.0,96,30.06,2.5,North,4.6,-,0.01,,Overcast,10,2013-10-05 03:54:00